KAL2703 ZYTL-RKSI

Flight info

Callsign KAL2703
Flight time 0h 52m
Altitude 33100
Route SAN09D SANKO A326 DONVO G597 AGAVO/N0481F331 Y644 REBIT REBIT2A
Aircraft B77W/H-SDE1E2E3FGHIJ2J3J4J5M1RWXY/LB1D1

Departure

Time 2026-04-18 08:12
Airport Dalian Zhoushuizi International Airport (ZYTL)

Arrival

Time 2026-04-18 09:04
Airport Incheon International Airport (RKSI)
Time Latitude Longitude Altitude Speed Heading
2026-04-18 07:38 38.96269 121.53584 155 ft 0 kts 182°
2026-04-18 08:03 38.96272 121.53585 155 ft 2 kts 179°
2026-04-18 08:03 38.96288 121.53582 155 ft 2 kts 162°
2026-04-18 08:03 38.96303 121.53574 155 ft 2 kts 146°
2026-04-18 08:03 38.96316 121.53561 155 ft 2 kts 129°
2026-04-18 08:04 38.96325 121.53544 155 ft 2 kts 113°
2026-04-18 08:04 38.96330 121.53524 155 ft 2 kts 97°
2026-04-18 08:04 38.96330 121.53520 155 ft 0 kts 94°
2026-04-18 08:06 38.96330 121.53522 155 ft 0 kts 94°
2026-04-18 08:07 38.96330 121.53534 155 ft 3 kts 94°
2026-04-18 08:07 38.96341 121.53554 155 ft 3 kts 21°
2026-04-18 08:07 38.96371 121.53552 155 ft 6 kts 358°
2026-04-18 08:07 38.96409 121.53524 155 ft 7 kts 302°
2026-04-18 08:08 38.96424 121.53454 155 ft 9 kts 279°
2026-04-18 08:08 38.96431 121.53361 155 ft 12 kts 273°
2026-04-18 08:08 38.96425 121.53248 155 ft 14 kts 264°
2026-04-18 08:08 38.96426 121.53114 155 ft 16 kts 277°
2026-04-18 08:09 38.96439 121.52964 155 ft 18 kts 276°
2026-04-18 08:09 38.96453 121.52795 155 ft 20 kts 276°
2026-04-18 08:09 38.96469 121.52607 155 ft 22 kts 276°
2026-04-18 08:09 38.96481 121.52407 155 ft 22 kts 274°
2026-04-18 08:10 38.96496 121.52207 155 ft 22 kts 276°
2026-04-18 08:10 38.96514 121.52008 155 ft 22 kts 281°
2026-04-18 08:10 38.96576 121.51957 155 ft 11 kts
2026-04-18 08:10 38.96660 121.51971 155 ft 13 kts
2026-04-18 08:11 38.96703 121.52027 155 ft 8 kts 79°
2026-04-18 08:11 38.96704 121.52086 155 ft 0 kts 93°
2026-04-18 08:11 38.96697 121.52190 155 ft 32 kts 95°
2026-04-18 08:12 38.96642 121.52909 155 ft 131 kts 97°
2026-04-18 08:12 38.96534 121.54425 369 ft 191 kts 98°
2026-04-18 08:12 38.96300 121.56079 1422 ft 190 kts 99°
2026-04-18 08:12 38.96183 121.57833 2202 ft 209 kts 97°
2026-04-18 08:13 38.96058 121.59845 2501 ft 243 kts 97°
2026-04-18 08:13 38.95895 121.62083 3193 ft 255 kts 97°
2026-04-18 08:13 38.95707 121.64404 3943 ft 268 kts 97°
2026-04-18 08:13 38.95502 121.66805 4892 ft 272 kts 97°
2026-04-18 08:14 38.95300 121.69233 5821 ft 275 kts 93°
2026-04-18 08:14 38.95642 121.71652 6631 ft 281 kts 63°
2026-04-18 08:14 38.96894 121.73571 7462 ft 284 kts 32°
2026-04-18 08:14 38.98684 121.74547 8338 ft 285 kts
2026-04-18 08:15 39.00666 121.74744 9103 ft 289 kts 350°
2026-04-18 08:15 39.02546 121.73810 9959 ft 289 kts 321°
2026-04-18 08:15 39.03882 121.71888 10644 ft 296 kts 296°
2026-04-18 08:15 39.04497 121.69311 10875 ft 318 kts 275°
2026-04-18 08:16 39.04701 121.66353 11096 ft 347 kts 273°
2026-04-18 08:16 39.04880 121.63157 11493 ft 363 kts 269°
2026-04-18 08:16 39.04464 121.59926 12166 ft 373 kts 248°
2026-04-18 08:16 39.03115 121.57065 13095 ft 378 kts 227°
2026-04-18 08:17 39.01051 121.54961 14080 ft 382 kts 207°
2026-04-18 08:17 38.98532 121.53872 14986 ft 387 kts 187°
2026-04-18 08:17 38.95840 121.54126 15875 ft 395 kts 164°
2026-04-18 08:17 38.93396 121.55789 16715 ft 406 kts 141°
2026-04-18 08:18 38.91599 121.58611 17563 ft 413 kts 121°
2026-04-18 08:18 38.90140 121.61805 18139 ft 419 kts 126°
2026-04-18 08:18 38.88288 121.64735 18802 ft 425 kts 134°
2026-04-18 08:18 38.86205 121.67425 19684 ft 423 kts 140°
2026-04-18 08:19 38.83912 121.69810 20478 ft 426 kts 143°
2026-04-18 08:19 38.81535 121.72115 21260 ft 430 kts 144°
2026-04-18 08:19 38.79126 121.74424 22062 ft 434 kts 144°
2026-04-18 08:19 38.76706 121.76762 22856 ft 438 kts 144°
2026-04-18 08:20 38.74273 121.79142 23624 ft 441 kts 143°
2026-04-18 08:20 38.71830 121.81555 24211 ft 446 kts 143°
2026-04-18 08:20 38.69364 121.84007 24751 ft 452 kts 143°
2026-04-18 08:20 38.66869 121.86495 25292 ft 457 kts 143°
2026-04-18 08:21 38.64384 121.88975 25823 ft 462 kts 143°
2026-04-18 08:21 38.61803 121.91549 26363 ft 466 kts 143°
2026-04-18 08:21 38.59265 121.94076 26874 ft 471 kts 143°
2026-04-18 08:21 38.56667 121.96660 27365 ft 475 kts 143°
2026-04-18 08:22 38.54046 121.99263 27873 ft 480 kts 143°
2026-04-18 08:22 38.51398 122.01891 28337 ft 484 kts 143°
2026-04-18 08:22 38.48728 122.04537 28785 ft 488 kts 143°
2026-04-18 08:22 38.46037 122.07202 29216 ft 492 kts 143°
2026-04-18 08:23 38.43324 122.09886 29653 ft 494 kts 143°
2026-04-18 08:23 38.40611 122.12568 30218 ft 494 kts 143°
2026-04-18 08:23 38.37898 122.15248 30779 ft 491 kts 144°
2026-04-18 08:23 38.35204 122.17907 31363 ft 489 kts 144°
2026-04-18 08:24 38.32521 122.20552 31915 ft 487 kts 144°
2026-04-18 08:24 38.29941 122.23316 32317 ft 487 kts 135°
2026-04-18 08:24 38.27967 122.26840 32642 ft 494 kts 118°
2026-04-18 08:24 38.26821 122.30966 33048 ft 497 kts 102°
2026-04-18 08:25 38.26297 122.35340 33040 ft 502 kts 99°
2026-04-18 08:25 38.24959 122.43974 33049 ft 493 kts 114°
2026-04-18 08:25 38.23295 122.47743 33054 ft 489 kts 131°
2026-04-18 08:26 38.20945 122.50809 33079 ft 483 kts 140°
2026-04-18 08:26 38.16085 122.56782 33058 ft 488 kts 137°
2026-04-18 08:27 38.11305 122.62951 33061 ft 491 kts 137°
2026-04-18 08:27 38.06524 122.69139 33058 ft 490 kts 137°
2026-04-18 08:28 38.01771 122.75319 33056 ft 488 kts 137°
2026-04-18 08:28 37.97034 122.81469 33073 ft 486 kts 137°
2026-04-18 08:29 37.92309 122.87587 33056 ft 485 kts 138°
2026-04-18 08:29 37.87590 122.93681 33067 ft 484 kts 138°
2026-04-18 08:30 37.82876 122.99758 33072 ft 484 kts 138°
2026-04-18 08:30 37.78161 123.05825 33057 ft 483 kts 138°
2026-04-18 08:31 37.73447 123.11880 33071 ft 483 kts 138°
2026-04-18 08:31 37.68729 123.17927 33072 ft 483 kts 138°
2026-04-18 08:32 37.64009 123.23967 33066 ft 483 kts 138°
2026-04-18 08:32 37.59291 123.29994 33068 ft 483 kts 138°
2026-04-18 08:33 37.54799 123.36300 33067 ft 486 kts 130°
2026-04-18 08:33 37.50768 123.43142 33071 ft 486 kts 130°
2026-04-18 08:34 37.46778 123.49935 33069 ft 486 kts 130°
2026-04-18 08:34 37.42731 123.56740 33069 ft 485 kts 130°
2026-04-18 08:35 37.38673 123.63519 33072 ft 485 kts 130°
2026-04-18 08:35 37.34617 123.70278 33067 ft 484 kts 130°
2026-04-18 08:36 37.31243 123.75892 33066 ft 484 kts 130°
2026-04-18 08:36 37.27189 123.82630 33068 ft 484 kts 130°
2026-04-18 08:37 37.23130 123.89364 33065 ft 484 kts 130°
2026-04-18 08:37 37.19130 123.96141 33059 ft 484 kts 124°
2026-04-18 08:37 37.17696 123.99979 33060 ft 490 kts 111°
2026-04-18 08:38 37.16909 124.04150 33068 ft 495 kts 99°
2026-04-18 08:38 37.17054 124.12818 33069 ft 500 kts 88°
2026-04-18 08:39 37.17510 124.21530 33066 ft 501 kts 89°
2026-04-18 08:39 37.17766 124.30268 33062 ft 502 kts 91°
2026-04-18 08:40 37.17942 124.39041 33063 ft 504 kts 91°
2026-04-18 08:40 37.18141 124.47847 32463 ft 513 kts 90°
2026-04-18 08:40 37.18242 124.52342 31601 ft 516 kts 90°
2026-04-18 08:41 37.18344 124.56822 30943 ft 511 kts 90°
2026-04-18 08:41 37.18441 124.61190 30369 ft 504 kts 89°
2026-04-18 08:41 37.18538 124.65617 29714 ft 499 kts 89°
2026-04-18 08:41 37.18630 124.69944 29070 ft 493 kts 89°
2026-04-18 08:42 37.18719 124.74205 28477 ft 486 kts 89°
2026-04-18 08:42 37.18805 124.78415 27889 ft 480 kts 89°
2026-04-18 08:42 37.18889 124.82574 27307 ft 474 kts 89°
2026-04-18 08:42 37.18970 124.86626 26747 ft 468 kts 89°
2026-04-18 08:43 37.19054 124.90739 26178 ft 462 kts 89°
2026-04-18 08:43 37.19135 124.94688 25635 ft 457 kts 89°
2026-04-18 08:43 37.19214 124.98646 25093 ft 451 kts 89°
2026-04-18 08:43 37.19292 125.02561 24544 ft 446 kts 89°
2026-04-18 08:44 37.19366 125.06427 24019 ft 441 kts 89°
2026-04-18 08:44 37.19439 125.10256 23447 ft 437 kts 89°
2026-04-18 08:44 37.19509 125.14035 22848 ft 431 kts 89°
2026-04-18 08:44 37.19578 125.17772 22291 ft 426 kts 89°
2026-04-18 08:45 37.19644 125.21460 21767 ft 420 kts 89°
2026-04-18 08:45 37.19709 125.25102 21246 ft 415 kts 89°
2026-04-18 08:45 37.19771 125.28697 20745 ft 410 kts 89°
2026-04-18 08:45 37.19832 125.32253 20232 ft 406 kts 89°
2026-04-18 08:46 37.19891 125.35778 19744 ft 402 kts 89°
2026-04-18 08:46 37.19949 125.39264 19250 ft 399 kts 89°
2026-04-18 08:46 37.20006 125.42726 18757 ft 396 kts 89°
2026-04-18 08:46 37.20061 125.46165 18256 ft 393 kts 89°
2026-04-18 08:47 37.19925 125.49554 17688 ft 387 kts 101°
2026-04-18 08:47 37.19095 125.52711 17188 ft 378 kts 110°
2026-04-18 08:47 37.18163 125.55774 16699 ft 375 kts 110°
2026-04-18 08:47 37.17255 125.58835 16213 ft 373 kts 110°
2026-04-18 08:48 37.16369 125.61880 15730 ft 371 kts 109°
2026-04-18 08:48 37.15498 125.64914 15255 ft 369 kts 109°
2026-04-18 08:48 37.14635 125.67940 14774 ft 367 kts 109°
2026-04-18 08:48 37.13778 125.70949 14299 ft 366 kts 109°
2026-04-18 08:49 37.12924 125.73946 13819 ft 365 kts 109°
2026-04-18 08:49 37.12071 125.76932 13281 ft 363 kts 109°
2026-04-18 08:49 37.11232 125.79906 12778 ft 359 kts 107°
2026-04-18 08:49 37.10715 125.82932 12295 ft 354 kts 97°
2026-04-18 08:50 37.10472 125.85994 11846 ft 352 kts 94°
2026-04-18 08:50 37.10285 125.89035 11395 ft 350 kts 94°
2026-04-18 08:50 37.10078 125.92059 10976 ft 347 kts 94°
2026-04-18 08:50 37.09840 125.95020 10827 ft 336 kts 95°
2026-04-18 08:51 37.09591 125.97886 10672 ft 326 kts 95°
2026-04-18 08:51 37.09344 126.00673 10526 ft 317 kts 95°
2026-04-18 08:51 37.09182 126.03380 10392 ft 307 kts 89°
2026-04-18 08:51 37.09221 126.06016 10264 ft 298 kts 87°
2026-04-18 08:52 37.09283 126.08577 10142 ft 290 kts 88°
2026-04-18 08:52 37.09327 126.11070 10013 ft 283 kts 88°
2026-04-18 08:52 37.09362 126.13530 9684 ft 282 kts 88°
2026-04-18 08:52 37.09391 126.15979 9361 ft 281 kts 88°
2026-04-18 08:53 37.09415 126.18421 9046 ft 280 kts 88°
2026-04-18 08:53 37.09438 126.20849 8734 ft 279 kts 88°
2026-04-18 08:53 37.09462 126.23272 8417 ft 276 kts 86°
2026-04-18 08:53 37.09865 126.25572 8087 ft 271 kts 64°
2026-04-18 08:54 37.10863 126.27524 7794 ft 269 kts 54°
2026-04-18 08:54 37.11960 126.29412 7566 ft 266 kts 54°
2026-04-18 08:54 37.13026 126.31267 7429 ft 259 kts 54°
2026-04-18 08:54 37.14140 126.32967 7277 ft 249 kts 41°
2026-04-18 08:55 37.15469 126.34341 6783 ft 248 kts 50°
2026-04-18 08:55 37.16450 126.36147 6304 ft 253 kts 59°
2026-04-18 08:55 37.17358 126.38048 5938 ft 255 kts 58°
2026-04-18 08:55 37.18315 126.39915 5618 ft 254 kts 56°
2026-04-18 08:56 37.19308 126.41749 5304 ft 254 kts 55°
2026-04-18 08:56 37.20318 126.43571 4981 ft 254 kts 55°
2026-04-18 08:56 37.21334 126.45386 4671 ft 254 kts 55°
2026-04-18 08:56 37.22148 126.47319 4245 ft 253 kts 77°
2026-04-18 08:57 37.21263 126.51449 3603 ft 254 kts 131°
2026-04-18 08:57 37.20045 126.53013 3160 ft 250 kts 124°
2026-04-18 08:57 37.19489 126.55037 2800 ft 247 kts 89°
2026-04-18 08:58 37.19844 126.57123 2656 ft 247 kts 64°
2026-04-18 08:58 37.20729 126.58990 2621 ft 250 kts 55°
2026-04-18 08:58 37.21886 126.60580 2590 ft 249 kts 33°
2026-04-18 08:58 37.23514 126.61277 2583 ft 251 kts
2026-04-18 08:59 37.25227 126.60981 2602 ft 251 kts 340°
2026-04-18 08:59 37.26745 126.59910 2608 ft 251 kts 326°
2026-04-18 08:59 37.28149 126.58618 2576 ft 247 kts 324°
2026-04-18 08:59 37.29497 126.57380 2565 ft 234 kts 325°
2026-04-18 09:00 37.30773 126.56235 2575 ft 217 kts 326°
2026-04-18 09:00 37.31957 126.55182 2573 ft 200 kts 325°
2026-04-18 09:00 37.33025 126.54234 2591 ft 178 kts 326°
2026-04-18 09:00 37.34077 126.53300 2474 ft 191 kts 326°
2026-04-18 09:01 37.35110 126.52382 2235 ft 171 kts 326°
2026-04-18 09:01 37.36023 126.51569 1999 ft 152 kts 326°
2026-04-18 09:01 37.36867 126.50820 1829 ft 148 kts 326°
2026-04-18 09:01 37.37711 126.50070 1637 ft 148 kts 326°
2026-04-18 09:02 37.38547 126.49326 1435 ft 145 kts 325°
2026-04-18 09:02 37.39365 126.48597 1231 ft 144 kts 324°
2026-04-18 09:02 37.40171 126.47880 1049 ft 145 kts 323°
2026-04-18 09:02 37.40989 126.47153 876 ft 144 kts 324°
2026-04-18 09:03 37.41795 126.46436 667 ft 138 kts 322°
2026-04-18 09:03 37.42577 126.45738 479 ft 137 kts 323°
2026-04-18 09:03 37.43358 126.45046 310 ft 139 kts 323°
2026-04-18 09:03 37.44153 126.44339 125 ft 140 kts 323°
2026-04-18 09:04 37.44932 126.43651 50 ft 129 kts 323°
2026-04-18 09:04 37.45584 126.43065 38 ft 97 kts 324°
2026-04-18 09:04 37.46008 126.42690 38 ft 52 kts 325°
2026-04-18 09:04 37.46159 126.42593 38 ft 8 kts
2026-04-18 09:05 37.46204 126.42635 38 ft 8 kts 45°
2026-04-18 09:05 37.46244 126.42689 38 ft 9 kts 34°
2026-04-18 09:05 37.46299 126.42726 38 ft 9 kts 31°
2026-04-18 09:05 37.46343 126.42781 38 ft 9 kts 52°
2026-04-18 09:06 37.46381 126.42847 38 ft 9 kts 54°
2026-04-18 09:06 37.46418 126.42912 38 ft 9 kts 54°
2026-04-18 09:06 37.46434 126.42987 38 ft 9 kts 95°
2026-04-18 09:06 37.46446 126.43070 38 ft 10 kts 66°
2026-04-18 09:07 37.46467 126.43123 38 ft 0 kts 63°
2026-04-18 09:07 37.46470 126.43129 38 ft 1 kts 63°
2026-04-18 09:07 37.46472 126.43134 38 ft 0 kts 63°